| time (UTC) | temp C | wind direction | speed KPH | gust KPH | rain 1hr cm | rain 24hr cm | rain mn cm | humidity % | barometer mb |
| 20260509201543 | 14 | 326 | 16.1 | 29.0 | 0.00 | 0.00 | 0.00 | 82 | 1002.1 |
| 20260509200041 | 14 | 331 | 12.9 | 29.0 | 0.00 | 0.00 | 0.00 | 82 | 1002.2 |
| 20260509194547 | 14 | 319 | 12.9 | 27.4 | 0.00 | 0.00 | 0.00 | 82 | 1002.4 |
| 20260509193041 | 14 | 321 | 8.0 | 20.9 | 0.00 | 0.00 | 0.00 | 82 | 1002.5 |
| 20260509191546 | 14 | 12 | 12.9 | 25.7 | 0.00 | 0.00 | 0.00 | 82 | 1002.9 |
| 20260509190050 | 14 | 354 | 12.9 | 24.1 | 0.00 | 0.00 | 0.00 | 82 | 1003.2 |
| 20260509184547 | 14 | 326 | 9.7 | 27.4 | 0.00 | 0.00 | 0.00 | 82 | 1003.5 |
| 20260509183104 | 15 | 324 | 14.5 | 27.4 | 0.00 | 0.00 | 0.00 | 81 | 1003.9 |
| 20260509181606 | 15 | 290 | 11.3 | 22.5 | 0.00 | 0.00 | 0.00 | 80 | 1003.9 |
| 20260509180044 | 15 | 317 | 11.3 | 22.5 | 0.00 | 0.00 | 0.00 | 81 | 1004.1 |
| 20260509174543 | 15 | 320 | 9.7 | 22.5 | 0.00 | 0.00 | 0.00 | 81 | 1004.4 |
| 20260509173047 | 15 | 305 | 11.3 | 22.5 | 0.00 | 0.00 | 0.00 | 81 | 1004.4 |
| 20260509171543 | 15 | 5 | 9.7 | 19.3 | 0.00 | 0.00 | 0.00 | 80 | 1004.3 |
| 20260509170042 | 15 | 13 | 11.3 | 24.1 | 0.00 | 0.00 | 0.00 | 81 | 1004.5 |
| 20260509164546 | 15 | 314 | 9.7 | 22.5 | 0.00 | 0.00 | 0.00 | 81 | 1004.5 |
| 20260509163040 | 15 | 331 | 11.3 | 25.7 | 0.00 | 0.00 | 0.00 | 82 | 1004.6 |
| 20260509161547 | 15 | 303 | 17.7 | 30.6 | 0.00 | 0.00 | 0.00 | 82 | 1004.7 |
| 20260509160051 | 15 | 311 | 14.5 | 25.7 | 0.00 | 0.00 | 0.00 | 81 | 1004.8 |
| 20260509154554 | 15 | 322 | 14.5 | 29.0 | 0.00 | 0.00 | 0.00 | 80 | 1004.9 |
| 20260509153044 | 15 | 303 | 14.5 | 24.1 | 0.00 | 0.00 | 0.00 | 82 | 1005.1 |
| 20260509151544 | 15 | 304 | 9.7 | 22.5 | 0.00 | 0.00 | 0.00 | 82 | 1005.1 |
| 20260509150043 | 16 | 330 | 14.5 | 25.7 | 0.00 | 0.00 | 0.00 | 81 | 1005.2 |
| 20260509144542 | 16 | 333 | 11.3 | 29.0 | 0.00 | 0.00 | 0.00 | 78 | 1005.3 |
| 20260509143049 | 16 | 326 | 11.3 | 24.1 | 0.00 | 0.00 | 0.00 | 78 | 1005.2 |
| 20260509141546 | 16 | 326 | 16.1 | 25.7 | 0.00 | 0.00 | 0.00 | 77 | 1005.1 |
| 20260509140051 | 16 | 330 | 12.9 | 27.4 | 0.00 | 0.00 | 0.00 | 74 | 1005.2 |
| 20260509134543 | 17 | 329 | 14.5 | 25.7 | 0.00 | 0.00 | 0.00 | 70 | 1005.4 |
| 20260509133046 | 17 | 333 | 14.5 | 29.0 | 0.00 | 0.00 | 0.00 | 72 | 1005.4 |
| 20260509131546 | 17 | 297 | 16.1 | 35.4 | 0.00 | 0.00 | 0.00 | 71 | 1005.5 |
| 20260509130046 | 17 | 297 | 12.9 | 30.6 | 0.00 | 0.00 | 0.00 | 68 | 1005.6 |
| 20260509124544 | 17 | 314 | 17.7 | 40.2 | 0.00 | 0.00 | 0.00 | 68 | 1005.8 |
| 20260509123043 | 17 | 306 | 17.7 | 30.6 | 0.00 | 0.00 | 0.00 | 67 | 1005.9 |
| 20260509121539 | 17 | 333 | 16.1 | 27.4 | 0.00 | 0.00 | 0.00 | 69 | 1006.6 |
| 20260509120054 | 17 | 275 | 16.1 | 30.6 | 0.00 | 0.00 | 0.00 | 66 | 1006.9 |
| 20260509114548 | 17 | 325 | 19.3 | 29.0 | 0.00 | 0.00 | 0.00 | 60 | 1007.1 |
| 20260509113044 | 18 | 342 | 16.1 | 30.6 | 0.00 | 0.00 | 0.00 | 64 | 1007.4 |
| 20260509111548 | 18 | 324 | 14.5 | 27.4 | 0.00 | 0.00 | 0.00 | 64 | 1007.9 |
| 20260509110042 | 17 | 316 | 11.3 | 27.4 | 0.00 | 0.00 | 0.00 | 66 | 1008.1 |
| 20260509104545 | 17 | 49 | 16.1 | 30.6 | 0.00 | 0.00 | 0.00 | 64 | 1008.3 |
| 20260509103051 | 17 | 291 | 16.1 | 25.7 | 0.00 | 0.00 | 0.00 | 69 | 1008.3 |
| 20260509101551 | 16 | 286 | 12.9 | 25.7 | 0.00 | 0.00 | 0.00 | 77 | 1008.7 |
| 20260509100048 | 16 | 301 | 12.9 | 24.1 | 0.00 | 0.00 | 0.00 | 80 | 1009.0 |
| 20260509094545 | 16 | 28 | 11.3 | 22.5 | 0.00 | 0.00 | 0.00 | 80 | 1009.0 |
| 20260509093056 | 15 | 321 | 9.7 | 17.7 | 0.00 | 0.00 | 0.00 | 82 | 1009.1 |
| 20260509091548 | 15 | 19 | 8.0 | 17.7 | 0.00 | 0.00 | 0.00 | 84 | 1009.6 |
| 20260509090053 | 14 | 320 | 8.0 | 19.3 | 0.00 | 0.00 | 0.00 | 84 | 1009.9 |
| 20260509084553 | 15 | 348 | 8.0 | 19.3 | 0.00 | 0.00 | 0.00 | 83 | 1009.9 |
| 20260509083042 | 15 | 338 | 6.4 | 16.1 | 0.00 | 0.00 | 0.00 | 83 | 1010.0 |
| 20260509081548 | 13 | 330 | 6.4 | 16.1 | 0.00 | 0.00 | 0.00 | 84 | 1010.2 |
| 20260509080053 | 13 | 347 | 8.0 | 12.9 | 0.00 | 0.00 | 0.00 | 84 | 1010.3 |
| 20260509074544 | 13 | 334 | 6.4 | 16.1 | 0.00 | 0.00 | 0.00 | 84 | 1010.5 |
| 20260509073045 | 12 | 25 | 6.4 | 16.1 | 0.00 | 0.00 | 0.00 | 85 | 1010.4 |
| 20260509071540 | 13 | 6 | 8.0 | 12.9 | 0.00 | 0.00 | 0.00 | 84 | 1010.7 |
| 20260509070045 | 13 | 76 | 4.8 | 14.5 | 0.00 | 0.00 | 0.00 | 84 | 1010.5 |
| 20260509064554 | 13 | 1 | 4.8 | 11.3 | 0.00 | 0.00 | 0.00 | 86 | 1010.6 |
| 20260509063046 | 12 | 21 | 6.4 | 12.9 | 0.00 | 0.00 | 0.00 | 86 | 1010.3 |
| 20260509061544 | 12 | 324 | 3.2 | 8.0 | 0.00 | 0.00 | 0.00 | 88 | 1010.5 |
| 20260509060047 | 12 | 327 | 1.6 | 6.4 | 0.00 | 0.00 | 0.00 | 88 | 1010.4 |
| 20260509054547 | 11 | 333 | 4.8 | 8.0 | 0.00 | 0.00 | 0.00 | 88 | 1010.6 |
| 20260509053047 | 11 | 335 | 1.6 | 6.4 | 0.00 | 0.00 | 0.00 | 88 | 1010.7 |
| 20260509051548 | 11 | 330 | 1.6 | 3.2 | 0.00 | 0.00 | 0.00 | 88 | 1010.7 |
| 20260509050051 | 11 | 323 | 1.6 | 6.4 | 0.00 | 0.00 | 0.00 | 88 | 1010.8 |
| 20260509044549 | 11 | 311 | 1.6 | 6.4 | 0.00 | 0.00 | 0.00 | 88 | 1010.8 |
| 20260509043048 | 11 | 331 | 1.6 | 6.4 | 0.00 | 0.00 | 0.00 | 88 | 1010.9 |
| 20260509041554 | 11 | 25 | 1.6 | 4.8 | 0.00 | 0.00 | 0.00 | 87 | 1011.0 |
| 20260509040052 | 11 | 347 | 1.6 | 4.8 | 0.00 | 0.00 | 0.00 | 86 | 1011.0 |
| 20260509034549 | 11 | 0 | 0.0 | 4.8 | 0.00 | 0.00 | 0.00 | 87 | 1011.1 |
| 20260509033100 | 11 | 330 | 0.0 | 4.8 | 0.00 | 0.00 | 0.00 | 88 | 1011.2 |
| 20260509031548 | 11 | 311 | 0.0 | 4.8 | 0.00 | 0.00 | 0.00 | 88 | 1011.3 |
| 20260509030049 | 11 | 5 | 0.0 | 3.2 | 0.00 | 0.00 | 0.00 | 88 | 1011.4 |
| 20260509024543 | 11 | 342 | 0.0 | 3.2 | 0.00 | 0.00 | 0.00 | 88 | 1011.6 |
| 20260509023046 | 12 | 339 | 0.0 | 3.2 | 0.00 | 0.00 | 0.00 | 89 | 1011.7 |
| 20260509021548 | 12 | 313 | 1.6 | 3.2 | 0.00 | 0.00 | 0.00 | 89 | 1012.0 |
| 20260509020045 | 12 | 318 | 0.0 | 1.6 | 0.00 | 0.00 | 0.00 | 89 | 1012.0 |
| 20260509014545 | 12 | 314 | 0.0 | 3.2 | 0.00 | 0.00 | 0.00 | 89 | 1012.2 |
| 20260509013053 | 12 | 321 | 0.0 | 3.2 | 0.00 | 0.00 | 0.00 | 88 | 1012.5 |
| 20260509011542 | 12 | 0 | 0.0 | 1.6 | 0.00 | 0.00 | 0.00 | 87 | 1012.6 |
| 20260509010046 | 12 | 304 | 1.6 | 6.4 | 0.00 | 0.00 | 0.00 | 87 | 1012.9 |
| 20260509004546 | 12 | 313 | 4.8 | 9.7 | 0.00 | 0.00 | 0.00 | 86 | 1013.0 |
| 20260509003045 | 12 | 309 | 0.0 | 1.6 | 0.00 | 0.00 | 0.00 | 85 | 1013.0 |
| 20260509001543 | 12 | 0 | 0.0 | 0.0 | 0.00 | 0.00 | 0.00 | 84 | 1013.2 |
| 20260509000046 | 12 | 0 | 0.0 | 0.0 | 0.00 | 0.00 | 0.00 | 85 | 1013.3 |
| 20260508234540 | 12 | 0 | 0.0 | 0.0 | 0.00 | 0.00 | 0.00 | 86 | 1013.4 |
| 20260508233050 | 12 | 0 | 0.0 | 0.0 | 0.00 | 0.00 | 0.00 | 87 | 1013.5 |
| 20260508231551 | 12 | 0 | 0.0 | 0.0 | 0.00 | 0.00 | 0.00 | 87 | 1013.4 |
| 20260508230053 | 12 | 0 | 0.0 | 1.6 | 0.00 | 0.00 | 0.00 | 85 | 1013.5 |
| 20260508224543 | 12 | 0 | 0.0 | 0.0 | 0.00 | 0.00 | 0.00 | 81 | 1013.6 |
| 20260508223047 | 12 | 0 | 0.0 | 0.0 | 0.00 | 0.00 | 0.00 | 80 | 1013.8 |
| 20260508221539 | 12 | 0 | 0.0 | 1.6 | 0.00 | 0.00 | 0.00 | 77 | 1013.9 |
| 20260508220055 | 13 | 0 | 0.0 | 0.0 | 0.00 | 0.00 | 0.00 | 76 | 1014.0 |
| 20260508214546 | 13 | 0 | 0.0 | 0.0 | 0.00 | 0.00 | 0.00 | 75 | 1014.2 |
| 20260508213041 | 13 | 0 | 0.0 | 0.0 | 0.00 | 0.00 | 0.00 | 74 | 1014.4 |
| 20260508211550 | 13 | 0 | 0.0 | 1.6 | 0.00 | 0.00 | 0.00 | 74 | 1014.7 |
| 20260508210050 | 13 | 205 | 0.0 | 0.0 | 0.00 | 0.00 | 0.00 | 73 | 1014.7 |
| 20260508204550 | 14 | 0 | 0.0 | 1.6 | 0.00 | 0.00 | 0.00 | 73 | 1014.8 |
| 20260508203054 | 15 | 0 | 0.0 | 4.8 | 0.00 | 0.00 | 0.00 | 75 | 1014.8 |